map of BWG home
BWG - Airport
Location
City:  Bowling Green, Kentucky, United States
Name:Bowling Green-Warren County Regional
ICAO:KBWG
IATA:BWG
FAA LID:BWG

Details
Type:Airport (Part 139 Class II)
Use:Public/Civil
Latitude:3657'52"N (36.964528)
Longitude:8625'11"W (-86.419666)
Datum:WGS 1984
Elevation:547 ft (167 m)
Variation:4.19W (WMM2015 magnetic declination)
-0.08 annual change
Runways:2
Longest:6501 × 150 ft (1982 × 45.5 m), paved

Time
Time Zone:UTC-6 (DST-5)
Local Time:

Weather
METAR:KBWG 190453Z AUTO 00000KT 10SM SCT110 24/22 A2994 RMK AO2 SLP132 T02390222
TAF:KBWG 190530Z 1906/2006 00000KT 5SM BR SKC
FM190900 00000KT 2SM BR BKN018
TEMPO 1909/1913 1/2SM FG VV004
FM191400 00000KT P6SM SCT040

Related Locations
Nearby:
Farthest:YAUG: 11218 mi / 18054 km
Augusta [Augusta Airport], WA, AU

Find:

   beyond  
but within

Other Information
Maps:
NOTAMs:
Links:
Sources:

  
  • flag of United States
  • flag of Kentucky
  

Sectional Chart

Flight Planning
at skyvector.com

Satellite Image

Google Maps Satellite view

 

Copyright © 2004-2018 Karl L. Swartz. All rights reserved.
The Great Circle Mapper name and logo are trademarks of the Great Circle Mapper.
All other trademarks mentioned herein belong to their respective owners.
Please see credits for attibutions and further copyright information.

  Follow gcmap on Facebook Follow gcmap on Twitter Follow gcmap on Google+ GCmap on LinkedIn

hCard Microformat

Geo Microformat